Theta_e
328 330 330 330 331 331 331 331 330 332 333 331 327 325 324 324 323 322 322 322 324 323 324 325 325 326 325 325 324 324 321 320 320 319 316 313 308 304 303 301 298 297 298
322 328 330 330 330 331 331 331 331 331 332 332 329 326 324 324 324 323 322 322 323 324 323 324 324 325 325 325 324 324 321 320 321 319 318 317 310 300 299 299 298 297 297
312 322 328 329 330 330 330 331 330 330 331 331 331 329 326 324 323 323 323 323 324 324 325 323 323 324 325 324 323 323 321 320 320 319 318 315 317 305 297 298 298 297 296
317 313 325 328 329 330 331 330 329 328 329 330 329 329 328 326 325 324 324 324 323 324 325 325 325 324 325 324 322 322 321 321 321 319 319 318 315 310 302 296 296 297 296
317 316 317 326 328 330 330 330 328 327 327 327 328 328 328 327 326 326 326 325 325 324 325 326 327 326 326 324 323 322 321 322 321 320 318 317 313 310 303 296 293 296 296
316 317 315 322 327 329 329 328 326 327 326 326 326 327 328 328 326 326 326 326 326 325 325 326 327 328 327 325 324 323 322 322 322 322 320 318 316 311 303 297 293 294 296
315 316 315 316 325 327 328 327 324 324 326 326 326 326 327 327 327 325 325 325 325 326 326 326 328 328 328 327 325 324 324 323 323 323 324 321 319 318 315 303 294 292 294
312 312 315 314 321 326 327 328 324 323 324 326 326 326 326 326 325 325 324 325 325 325 325 326 326 327 327 328 327 325 324 324 324 324 324 323 322 319 317 314 297 291 292
309 310 309 315 314 323 326 328 328 325 323 324 324 325 325 325 325 325 324 324 325 325 326 326 326 327 327 328 328 327 325 325 324 324 325 324 322 321 318 316 309 297 291
307 306 306 309 312 318 325 327 329 329 328 327 325 323 323 324 324 324 324 324 325 326 326 327 327 328 328 328 328 327 326 324 324 325 323 324 322 321 316 311 304 298 295
303 303 304 306 306 310 320 326 327 328 329 329 329 327 326 324 324 324 324 324 325 326 327 328 328 328 328 328 327 326 324 324 323 324 324 324 322 318 312 306 300 296 294
303 303 304 305 306 306 308 317 324 326 328 329 330 330 330 330 328 326 325 325 326 327 327 328 328 328 328 328 327 326 323 323 322 324 323 322 319 313 310 304 297 295 294
306 305 304 304 305 306 307 307 307 309 316 324 327 328 330 330 330 330 329 328 327 327 328 328 328 328 328 328 328 328 324 324 322 322 322 321 316 311 306 302 294 293 293
306 304 304 304 306 307 308 308 309 309 309 308 308 311 318 323 326 327 329 329 330 329 329 329 329 329 328 327 326 326 323 323 321 320 319 317 315 313 307 298 292 291 291
307 304 304 303 305 306 307 308 308 309 308 309 309 309 309 308 310 314 319 323 326 328 329 329 329 328 326 326 325 322 321 320 319 316 313 312 310 309 303 298 293 291 290
307 305 303 304 304 305 306 307 307 308 308 309 309 309 309 309 310 315 319 320 322 322 323 322 321 320 319 318 317 317 316 314 314 310 306 305 300 297 298 297 291 290 290
308 306 305 304 304 305 306 306 306 307 308 309 309 309 309 309 310 311 314 316 315 315 314 316 315 315 316 315 314 311 309 308 307 305 303 301 298 296 295 292 292 290 290
306 305 304 304 304 305 305 306 306 307 307 308 308 308 308 308 308 308 308 309 309 310 310 311 310 310 310 310 309 309 306 304 302 301 300 298 297 293 291 291 289 289 290
303 303 303 303 302 302 303 303 304 305 305 305 305 305 305 305 305 304 303 304 305 305 306 305 306 306 307 306 304 303 300 299 297 296 295 294 293 292 291 289 289 290 290
301 301 300 299 299 299 301 301 300 300 299 300 301 302 303 304 303 303 304 304 303 302 303 303 302 301 302 300 299 297 295 294 293 291 290 291 291 290 289 291 292 289 288
299 298 297 294 294 296 298 296 295 294 295 298 299 300 300 299 301 302 302 300 300 299 299 299 297 296 295 295 294 293 293 292 291 291 290 290 291 291 291 291 289 288 287
295 294 291 289 291 293 295 292 290 292 295 296 297 297 297 298 299 299 298 297 296 295 294 294 293 293 292 291 291 291 291 290 290 291 291 291 292 291 288 287 287 286 286
290 290 288 286 287 289 290 288 288 292 294 295 295 294 295 295 295 295 294 293 292 291 291 290 289 290 290 290 290 290 290 290 289 290 291 290 288 287 286 286 286 285 285
286 286 285 283 282 285 286 286 289 291 292 292 291 291 291 291 292 292 291 291 290 289 289 288 288 288 288 288 289 289 288 288 287 288 287 287 287 286 286 286 286 285 285
283 283 282 280 280 284 285 287 288 288 289 289 288 288 288 288 288 288 288 288 287 287 287 287 287 287 287 288 288 288 288 288 287 286 285 284 285 285 285 285 285 285 285
280 279 279 279 279 281 282 284 286 287 288 287 286 286 286 286 286 285 285 285 285 285 286 286 286 285 285 285 286 287 287 287 286 285 285 284 284 283 283 283 284 284 284
Wind_Speed
25 30 33 36 33 35 37 37 40 41 37 35 36 31 34 33 32 30 30 30 28 28 27 26 25 23 23 20 18 17 15 14 10 10 10 10 12 13 13 11 10 9 8
10 18 26 31 35 39 39 39 43 45 45 38 36 34 35 37 36 34 33 32 31 30 31 29 28 26 25 22 21 21 19 17 16 6 13 3 3 8 11 12 11 10 10
13 13 22 30 37 35 42 44 45 44 45 43 37 32 30 33 34 35 35 35 34 32 32 32 31 29 28 27 24 25 25 20 20 19 9 2 3 5 9 14 14 13 12
14 13 22 28 34 39 45 46 44 45 46 45 37 35 32 29 33 35 39 37 37 36 35 34 34 34 32 30 28 29 29 25 20 20 22 14 7 3 3 9 14 15 14
14 15 20 30 35 37 43 47 45 45 45 45 43 37 35 32 29 31 35 40 39 40 38 37 36 35 37 34 33 32 32 31 31 22 19 16 15 10 4 3 9 15 17
13 15 25 31 33 36 37 40 42 45 45 44 44 41 38 35 29 32 35 37 40 41 42 41 41 40 38 39 38 36 37 35 34 32 24 21 11 15 8 3 6 14 16
9 11 11 18 26 31 36 38 40 40 43 45 44 45 40 36 38 35 35 31 34 37 45 45 45 45 43 42 41 41 40 38 37 38 35 31 28 25 26 15 5 5 9
8 9 10 18 26 32 36 37 37 39 38 43 44 43 43 40 39 38 37 38 39 42 40 44 47 47 46 45 43 43 43 42 41 41 36 35 35 32 31 27 14 2 5
8 9 10 16 25 28 34 37 36 37 36 42 42 43 46 44 42 41 35 38 39 37 37 41 44 45 48 47 46 46 46 46 45 44 42 40 37 35 36 34 33 24 5
7 5 5 6 16 28 33 36 38 39 44 46 44 41 41 42 43 36 37 38 40 40 42 42 43 43 46 47 47 47 48 47 48 47 42 42 39 39 38 34 33 32 22
6 4 2 2 3 8 23 27 30 31 28 34 35 34 36 39 40 39 40 43 43 42 44 45 46 46 46 46 44 45 43 47 45 45 43 42 41 39 35 32 32 32 26
6 5 3 3 4 7 8 12 22 28 30 31 34 34 36 37 38 41 42 41 42 41 46 45 45 45 44 44 45 45 43 47 44 47 44 44 41 36 35 33 36 33 28
5 2 2 4 4 4 4 6 9 14 18 24 27 30 34 35 36 37 38 40 41 42 41 42 43 44 44 44 44 46 45 46 46 47 46 48 44 41 41 38 39 32 30
4 2 0 1 1 1 0 1 3 6 9 14 18 22 25 27 30 31 32 33 36 38 39 41 43 43 42 41 41 44 45 44 42 45 46 48 47 46 46 42 37 30 28
6 5 3 3 3 3 4 5 6 7 8 11 13 16 16 18 20 21 24 27 29 31 33 36 37 37 37 36 36 40 43 43 41 41 40 42 42 44 43 37 36 32 30
7 7 6 5 3 5 7 9 10 9 8 9 10 9 9 10 12 12 11 13 16 19 18 17 19 22 24 25 27 31 34 35 35 35 34 35 36 33 34 27 29 30 28
8 7 6 5 5 5 7 9 8 8 8 7 7 7 7 7 7 8 9 10 10 11 12 14 16 18 19 21 22 23 26 28 28 29 29 29 30 27 25 28 21 23 26
6 5 4 4 2 3 4 5 5 5 5 5 5 5 6 6 5 6 6 7 7 8 10 12 14 15 15 15 17 18 19 22 24 24 25 27 27 24 23 20 21 22 20
6 9 9 6 4 1 1 1 1 2 2 1 2 3 4 5 4 2 4 4 4 6 8 11 13 16 16 17 15 14 16 18 18 19 18 20 21 23 23 24 22 17 22
13 14 11 8 5 3 2 4 5 5 6 3 1 2 3 1 0 1 2 4 6 8 9 10 11 12 13 12 11 12 12 13 13 12 11 15 18 21 24 21 21 25 30
12 12 12 11 8 7 7 11 9 11 7 5 3 3 3 2 1 2 3 4 5 5 6 7 8 8 9 7 7 12 12 13 14 16 16 18 21 20 19 20 26 30 28
12 13 15 13 12 12 11 13 14 10 7 6 6 6 6 4 2 2 4 4 4 5 6 7 8 8 6 3 4 9 9 11 15 16 17 19 19 20 22 27 30 29 25
12 14 17 17 17 15 13 14 11 9 9 8 10 9 7 5 4 4 4 5 5 5 7 7 8 9 6 2 6 10 8 8 11 11 13 15 16 17 18 22 22 19 21
13 17 18 18 18 17 16 16 12 10 9 12 12 11 9 7 5 4 4 3 3 3 4 6 6 7 5 3 6 7 7 7 10 9 11 16 17 18 19 19 17 22 25
15 17 17 17 18 17 17 14 11 9 12 13 12 12 11 10 8 7 6 5 4 3 3 4 4 5 6 7 10 11 9 9 8 8 8 10 14 15 17 20 23 23 25
18 19 20 21 15 15 16 16 15 12 12 15 14 13 12 10 9 8 6 7 8 7 5 5 6 6 5 5 3 8 9 8 7 7 11 12 13 14 15 16 22 25 24
Wind_Direction
223 215 217 216 216 216 216 220 215 215 213 208 208 210 211 216 221 223 225 223 221 222 222 223 223 222 223 227 223 218 218 211 213 173 137 160 175 177 185 196 191 185 183
229 213 215 214 212 217 217 220 219 215 214 210 213 213 216 219 224 226 227 227 225 224 224 225 225 226 224 227 228 222 222 223 211 189 155 155 167 197 191 192 198 196 192
216 214 211 208 211 214 217 220 219 214 216 214 216 217 221 226 225 226 229 228 229 230 227 229 228 228 227 231 227 224 221 222 219 215 186 159 208 152 197 199 203 205 200
226 212 209 211 210 211 218 219 218 217 219 217 212 210 211 213 222 224 228 229 229 231 231 231 231 230 230 233 230 225 226 226 223 211 212 222 163 172 187 203 211 210 212
230 224 213 211 214 210 213 216 217 218 220 219 215 214 215 220 224 226 230 231 231 232 234 233 232 233 233 234 232 229 231 232 235 226 204 207 198 189 143 198 188 213 216
235 230 219 212 211 211 211 212 213 217 217 219 219 217 220 220 222 226 229 231 233 234 234 235 235 235 238 237 235 234 236 237 240 241 224 204 195 202 180 163 185 202 209
232 233 212 205 208 204 207 209 208 212 214 217 220 220 223 222 224 225 226 227 229 229 234 234 234 236 240 240 238 238 240 240 242 245 241 234 236 235 223 210 164 160 196
249 248 232 207 206 205 206 207 207 212 209 214 219 222 225 224 226 229 227 228 230 235 236 238 237 239 241 241 241 242 244 245 246 247 247 238 237 237 236 223 180 145 177
242 246 253 229 210 208 208 205 206 211 209 216 219 221 226 224 226 229 229 231 236 236 237 240 242 242 242 243 242 242 243 244 245 246 242 236 240 236 231 230 222 199 175
222 241 247 272 232 217 212 209 211 211 214 220 221 220 223 226 229 229 228 231 234 237 240 240 242 244 244 244 243 241 243 242 245 246 244 237 238 236 230 225 220 216 206
183 198 206 195 185 207 218 213 214 219 220 220 222 222 226 229 231 229 231 235 239 238 240 242 244 245 245 245 241 240 239 242 242 245 241 237 238 233 228 227 222 213 205
171 162 151 146 168 150 170 199 221 229 231 232 231 231 233 235 234 234 235 238 239 240 245 244 244 244 245 246 247 244 240 245 242 246 240 234 232 227 226 225 228 215 206
170 166 106 90 97 127 170 203 217 228 231 235 238 239 239 237 238 238 241 241 241 244 245 244 244 244 245 247 250 252 248 251 248 247 243 237 230 225 222 221 222 213 206
231 207 260 274 113 62 85 229 267 254 248 243 241 242 243 244 247 250 249 249 248 250 251 252 253 252 251 251 253 251 250 250 251 250 247 241 235 229 227 218 214 208 202
227 225 218 232 249 277 289 271 275 279 270 255 251 253 255 253 252 252 253 253 253 254 255 255 253 251 252 254 255 254 253 249 250 248 248 246 242 239 229 220 216 199 203
219 221 217 214 230 257 277 286 289 284 277 261 259 261 258 252 248 246 246 246 246 245 248 249 258 260 259 262 267 267 263 257 252 253 249 247 239 228 229 222 221 223 204
202 184 179 168 197 257 290 290 281 276 269 251 240 239 245 252 249 245 241 240 248 252 256 259 265 267 267 268 270 267 263 262 262 258 256 250 241 232 223 210 224 223 215
181 167 163 185 215 266 280 275 266 249 228 218 228 242 243 240 247 249 245 250 258 267 271 271 272 274 276 282 283 282 274 268 266 264 257 247 233 217 205 209 206 204 209
170 175 170 158 147 144 311 240 94 109 141 179 241 244 248 258 256 300 327 314 305 295 280 274 282 288 289 289 290 287 276 266 269 264 260 244 224 206 202 198 195 216 233
155 131 125 120 113 59 89 111 83 81 61 30 325 252 237 232 74 277 281 285 287 297 296 294 293 294 290 292 292 277 262 251 251 254 241 229 216 202 198 206 217 218 217
112 120 112 94 74 79 99 86 73 48 30 36 38 50 56 69 279 289 298 317 321 317 315 315 309 306 306 305 268 242 241 234 231 229 214 208 206 206 215 222 221 219 216
110 121 103 86 76 79 92 76 56 38 45 61 76 80 74 61 19 345 348 342 334 334 330 326 325 331 332 315 258 246 259 259 254 241 229 216 210 206 210 210 218 216 218
109 119 103 88 75 77 80 76 54 60 65 72 70 72 85 82 72 49 30 16 3 348 335 328 332 334 336 308 209 221 242 238 239 241 230 222 213 218 209 213 222 210 212
103 111 100 81 69 68 68 63 60 70 79 81 77 75 80 87 85 66 66 58 26 355 342 331 331 322 302 275 219 231 248 258 252 246 229 224 215 208 210 209 211 212 216
99 101 95 90 76 69 69 72 79 83 86 87 81 76 75 74 69 69 58 36 24 348 347 343 329 306 300 286 256 247 250 253 254 240 219 204 200 205 213 219 216 217 221
107 97 90 85 83 85 78 76 77 81 83 79 69 66 65 65 64 54 44 45 33 27 9 4 2 357 330 325 254 234 247 261 254 227 230 224 217 219 222 226 229 228 234